GFSMA_prec_cloud_120.txt.gz
Cloud_Cover
7 6 6 5 8 37 6 63 95 100 77 6 94 100 73 93 92 96 100 100 43 80 100 100 100 43 2 4 4 1 5 4 0 0 0 0 1 8 5 60 32 5 5
26 99 5 36 78 35 31 69 99 100 100 71 35 50 48 76 100 100 18 100 84 100 100 100 5 5 5 4 2 0 0 5 5 5 0 3 5 1 6 100 5 67 100
62 81 27 49 89 100 100 73 75 42 50 56 27 67 94 92 83 14 19 88 88 64 97 99 19 29 10 18 7 5 1 3 5 5 5 4 5 11 7 5 6 91 100
77 68 98 94 100 100 100 100 100 100 74 25 91 100 100 16 5 23 85 5 3 8 5 5 5 42 9 6 14 45 76 20 58 5 7 5 5 5 5 5 100 100 100
100 90 62 97 100 100 100 100 100 100 100 73 100 100 49 98 95 93 91 16 5 5 4 10 68 87 63 17 22 41 63 51 100 75 73 40 24 7 39 99 100 100 100
100 100 100 100 100 100 100 100 100 100 100 100 100 100 82 100 85 14 18 5 5 4 5 5 12 80 100 76 44 27 88 98 10 16 48 100 100 100 100 100 100 100 100
100 100 100 100 100 100 100 100 100 100 100 100 100 100 100 100 65 5 5 1 5 2 3 0 5 5 78 97 76 100 100 100 92 53 100 100 89 100 100 98 100 100 100
100 100 97 100 100 100 100 100 100 100 100 100 100 100 100 48 5 5 3 4 3 4 5 5 16 11 16 34 58 95 98 100 86 100 100 100 100 100 98 82 100 100 100
100 100 100 98 99 100 100 100 100 100 100 100 100 100 92 8 48 20 8 5 64 45 42 5 88 65 93 49 89 94 98 38 84 98 100 100 100 100 100 95 100 100 100
99 100 97 90 100 100 100 100 100 100 100 100 100 95 98 6 58 88 36 21 8 15 22 75 34 65 88 94 13 93 96 39 79 96 100 100 100 100 100 100 100 100 100
100 100 100 100 100 100 100 100 100 100 100 100 100 100 100 88 84 95 76 7 5 5 5 79 1 68 54 57 100 92 28 5 97 100 100 95 34 97 100 100 100 100 100
100 100 100 98 100 100 100 100 100 100 100 100 100 98 100 94 100 90 99 100 41 30 72 13 73 60 65 5 29 20 100 96 100 99 100 100 55 74 92 99 99 99 100
100 100 100 100 100 100 100 100 100 100 100 100 100 100 100 100 100 100 100 100 49 61 73 100 85 28 93 86 1 23 99 100 100 68 95 93 100 100 95 100 100 98 100
100 100 100 96 100 100 100 100 100 100 100 100 100 95 88 100 100 100 88 100 99 100 100 78 60 34 5 0 94 100 100 55 83 90 71 99 100 100 62 15 75 99 91
100 100 100 98 100 100 100 100 100 100 100 100 100 100 100 100 100 94 100 100 100 100 100 99 34 69 31 59 100 100 100 59 76 100 100 100 100 100 100 100 100 83 99
100 100 100 100 100 100 100 100 100 100 100 100 100 100 100 97 99 17 43 88 100 100 96 100 12 21 100 82 60 100 96 95 99 100 100 100 100 100 99 100 91 100 96
100 100 100 100 100 100 100 100 100 100 100 100 100 100 100 47 35 85 77 100 100 100 100 15 92 100 100 100 100 100 100 87 95 100 100 100 100 100 100 100 100 100 32
100 100 100 100 100 100 100 100 100 100 100 100 100 19 6 22 93 100 100 100 100 100 100 98 100 98 100 100 100 100 100 100 100 100 100 100 100 77 98 100 94 88 100
100 100 100 100 100 100 100 100 100 100 100 100 100 100 100 75 100 22 100 100 100 100 100 100 100 100 100 64 56 100 100 100 100 100 100 100 100 100 100 100 100 100 92
100 100 100 100 100 100 100 100 100 100 100 100 100 100 100 100 100 100 100 100 100 100 100 99 100 99 98 100 100 100 100 100 100 100 100 100 100 100 100 100 100 100 98
100 100 100 100 100 100 100 100 100 100 100 100 100 100 100 100 100 100 100 100 100 100 100 100 100 100 100 100 100 100 100 100 100 100 100 100 100 100 100 100 100 100 100
100 100 100 100 100 100 100 100 100 100 100 100 100 100 100 100 100 100 100 100 100 100 100 100 100 100 100 100 100 66 100 100 100 100 100 100 100 100 100 100 100 100 99
100 100 100 100 100 100 100 100 100 100 100 100 100 100 100 100 100 100 100 100 100 100 100 100 100 100 100 100 100 100 100 100 100 100 100 100 100 100 100 100 100 100 100
100 100 100 100 100 100 100 100 100 100 100 100 100 100 100 100 100 100 100 100 100 100 100 77 51 80 100 90 100 100 98 100 100 100 100 100 100 100 100 100 100 100 100
100 100 100 100 100 100 100 100 100 100 100 100 100 100 100 100 100 100 100 100 100 100 100 100 100 97 100 100 96 96 100 100 100 100 100 100 100 100 100 100 100 100 100
100 100 100 100 100 100 100 100 100 100 100 100 100 100 100 100 100 100 100 100 100 100 100 100 99 39 96 78 100 66 97 100 100 100 100 100 100 100 100 100 100 100 95

GFSMA_prec_cloud_123.txt.gz
Cloud_Cover
99 94 94 47 29 11 56 76 71 94 96 88 100 100 100 54 86 64 40 5 6 31 7 5 5 5 5 4 1 0 4 1 1 5 5 6 38 90 91 99 77 29 9
100 81 75 67 74 70 40 27 100 89 88 59 54 93 68 44 49 73 73 50 8 4 5 5 5 2 5 5 5 5 5 5 5 5 5 35 100 31 12 5 8 41 4
100 64 78 100 100 100 60 44 100 100 100 100 100 100 100 95 50 80 96 96 8 5 1 28 78 10 16 49 7 5 5 8 93 99 6 14 100 57 72 5 47 10 65
100 100 100 100 100 100 100 100 100 100 100 99 100 85 88 96 95 100 100 100 30 100 100 12 5 7 10 58 7 91 56 100 100 36 66 30 57 67 5 5 83 70 7
100 100 100 100 100 100 100 100 100 100 80 97 98 100 93 100 100 100 100 100 100 100 22 3 0 5 64 52 24 5 45 93 94 99 93 30 100 61 5 20 5 51 32
100 100 100 100 100 100 100 100 100 100 100 98 100 100 100 100 100 100 100 100 100 84 5 2 4 5 10 72 100 89 73 46 96 63 13 91 89 91 99 98 97 99 96
100 100 100 100 100 100 100 100 100 80 79 100 100 100 87 100 100 100 100 100 59 5 2 0 3 4 5 83 100 44 44 66 100 95 98 100 100 100 90 100 74 99 100
100 100 100 100 100 100 100 100 100 100 100 100 100 100 100 100 100 59 94 57 5 5 5 4 4 1 9 16 25 81 100 67 78 100 100 98 98 100 96 100 83 46 99
100 100 100 100 100 100 100 100 100 100 100 100 100 100 100 100 100 92 28 5 5 4 2 0 3 5 5 4 96 83 38 24 60 28 12 69 100 78 98 32 85 90 100
100 100 100 100 100 100 100 100 100 100 100 100 100 100 100 100 100 100 11 5 52 3 0 0 0 1 5 21 8 8 36 5 13 39 59 74 90 90 83 84 69 100 100
100 100 100 100 100 100 100 100 100 100 100 100 100 100 100 100 100 92 16 7 31 5 4 1 0 5 3 5 5 10 78 5 30 67 81 79 100 100 29 9 100 100 97
100 100 100 100 100 100 100 100 100 100 100 100 100 100 100 100 51 43 23 64 24 17 5 17 4 3 2 5 12 4 0 0 4 80 100 100 57 50 33 92 98 95 100
100 100 100 100 100 100 100 99 100 100 100 100 100 100 100 100 100 96 71 99 50 4 5 55 84 61 82 35 20 18 74 33 12 94 94 91 100 98 28 71 12 36 30
100 100 100 100 78 100 100 100 100 100 100 100 100 100 100 97 100 100 100 97 100 100 88 100 26 58 94 63 89 94 49 100 83 95 90 99 100 74 35 100 43 94 93
100 100 100 100 100 97 99 100 100 100 100 100 100 100 100 100 100 100 99 98 100 100 93 59 22 83 74 100 100 100 100 100 90 100 97 100 100 100 100 90 90 67 100
100 100 100 100 100 100 100 100 100 100 100 100 100 100 100 100 100 100 100 100 100 87 76 100 100 100 100 99 76 100 100 100 100 89 100 100 100 100 99 76 2 27 6
100 100 100 100 100 100 100 100 100 100 100 100 100 100 100 100 100 99 95 95 100 100 100 100 100 100 98 100 100 100 100 100 98 100 100 100 100 100 100 100 100 76 92
100 100 100 100 100 100 100 100 100 100 100 100 100 100 100 100 86 71 97 100 100 100 100 100 89 100 99 60 91 75 100 100 100 100 100 100 100 100 100 100 86 53 60
100 100 100 100 100 100 100 100 100 100 100 100 100 100 100 100 100 100 100 100 100 100 100 100 51 97 29 97 100 97 100 76 67 97 98 100 100 100 81 42 96 92 84
100 100 100 100 100 100 100 100 100 100 100 100 100 100 100 100 100 100 100 100 100 100 100 100 100 72 100 100 100 100 97 100 100 100 100 100 100 100 100 100 100 84 95
100 100 100 100 100 100 100 100 100 100 100 100 100 100 100 100 100 100 100 100 100 100 100 100 100 100 100 100 82 98 100 100 97 97 100 100 100 100 100 100 100 100 100
100 100 100 100 100 100 100 100 100 100 100 100 100 100 100 100 98 100 100 100 100 100 100 100 100 100 38 100 100 100 100 100 89 53 100 100 100 100 100 100 100 100 100
100 100 100 100 100 100 100 100 100 100 100 100 100 100 99 95 100 100 100 100 100 100 100 100 100 100 100 100 100 100 100 100 100 100 100 100 100 100 100 100 100 100 100
100 100 100 100 100 100 100 100 100 100 100 100 100 100 100 100 94 100 100 100 100 100 100 100 100 100 100 100 100 100 100 100 100 100 100 100 100 100 100 100 100 100 100
100 100 100 100 100 100 100 100 100 100 100 100 100 100 100 100 100 100 100 100 100 100 100 100 100 100 100 100 100 100 100 100 100 100 100 100 100 100 100 100 100 100 100
100 100 100 100 100 100 100 100 100 100 100 92 100 100 100 100 100 100 100 100 100 100 100 100 100 100 100 100 100 100 100 100 100 100 100 100 100 100 100 100 100 100 100

GFSMA_prec_cloud_126.txt.gz
Cloud_Cover
100 100 98 44 34 40 58 51 59 76 19 15 41 100 56 71 76 100 100 36 49 83 5 5 4 5 17 30 5 5 5 5 5 38 37 7 5 5 86 23 100 14 4
100 100 84 76 92 96 80 64 66 75 48 18 89 100 100 100 84 100 100 46 5 46 5 5 24 40 35 5 5 5 5 35 93 100 10 68 39 65 65 100 96 81 5
19 100 71 98 100 100 100 100 68 100 66 51 85 100 100 78 100 100 12 95 100 100 5 84 100 100 33 5 8 7 100 100 100 100 77 50 100 81 100 97 30 85 10
22 58 76 100 100 100 100 100 97 95 100 100 100 100 89 69 100 100 100 96 100 100 20 100 100 100 95 21 41 63 90 60 74 78 98 59 99 92 90 100 100 83 5
40 96 100 100 100 100 100 100 100 100 100 100 100 100 100 100 78 58 100 100 100 44 87 100 100 85 64 23 56 33 27 56 53 52 88 92 26 100 100 100 100 54 94
97 95 65 100 100 100 100 100 100 100 100 100 100 100 100 70 78 85 100 100 98 97 100 100 49 5 5 5 68 5 5 80 61 100 100 100 100 100 100 77 100 64 100
100 34 88 100 100 100 100 100 100 100 100 100 100 100 100 95 82 100 100 100 100 100 91 16 6 5 5 32 11 29 5 17 96 100 100 100 100 100 100 48 12 6 52
100 100 100 100 100 100 100 100 100 100 100 100 100 100 100 94 100 100 100 100 100 100 96 5 1 19 19 30 5 7 76 100 98 100 100 93 100 100 46 79 10 8 85
100 100 100 100 100 100 100 100 100 100 100 100 100 100 100 100 100 100 100 100 100 35 5 5 5 3 0 5 35 100 100 60 98 100 100 93 52 98 13 17 19 49 79
100 100 100 100 100 100 100 100 100 100 100 100 100 100 100 100 100 100 100 100 100 18 6 5 1 1 0 16 33 4 4 5 97 100 100 100 100 100 31 14 24 86 25
100 100 100 100 100 100 100 100 100 100 100 100 100 100 100 100 100 100 100 100 98 5 5 0 1 2 5 0 5 5 4 0 29 48 75 100 94 51 72 30 28 9 92
100 100 100 100 100 100 100 100 100 100 100 100 100 100 100 100 100 100 100 81 61 9 24 16 6 8 14 5 26 85 10 5 16 39 94 100 100 40 100 47 6 5 41
100 100 100 100 100 100 100 100 100 100 100 100 100 100 100 99 100 100 96 18 82 98 42 36 29 100 42 70 20 86 4 0 42 100 94 41 81 97 100 96 14 7 96
100 100 100 100 100 100 100 100 100 100 100 100 100 100 100 100 100 100 96 72 22 49 56 54 75 59 22 10 37 46 12 100 100 100 98 94 100 100 100 72 98 19 27
100 100 100 100 100 100 100 100 100 100 100 100 100 100 100 100 100 100 100 78 56 82 7 39 94 40 21 4 4 30 90 100 100 100 100 88 96 100 92 95 76 83 42
100 100 100 100 100 100 100 100 100 100 100 100 100 100 100 100 100 100 100 100 80 100 88 72 40 99 6 34 73 82 100 100 100 100 94 40 98 100 98 56 98 66 93
100 100 100 100 100 100 100 100 100 100 100 100 100 100 100 100 100 100 100 100 100 100 44 58 94 79 30 74 98 34 75 72 97 100 100 100 100 92 67 79 30 100 100
100 100 100 100 100 100 100 100 100 100 100 100 100 100 100 100 100 100 100 100 100 100 84 98 100 67 22 7 14 18 76 100 100 100 100 100 100 100 91 28 100 100 26
100 100 100 100 100 100 100 100 100 100 100 100 100 100 100 100 100 100 100 100 100 100 100 100 24 32 66 66 100 100 100 100 100 100 89 100 100 100 78 92 80 100 48
100 100 100 100 100 100 100 100 100 100 100 100 100 100 100 100 100 100 100 100 100 100 100 100 100 100 85 100 100 100 100 100 100 99 93 96 99 100 100 100 100 78 51
100 100 100 100 100 100 100 100 100 100 100 100 100 100 100 100 100 100 100 100 100 100 100 100 100 100 100 100 100 100 100 100 98 82 100 100 97 100 100 100 100 100 100
100 100 100 100 100 100 100 100 100 100 100 100 100 100 100 100 100 100 100 100 99 98 100 100 100 100 100 100 100 100 100 100 100 100 100 100 100 100 100 100 100 100 100
100 100 100 100 100 100 100 100 100 100 100 100 100 100 100 100 100 100 100 100 100 100 97 99 100 100 98 100 100 100 100 100 100 100 100 100 100 100 100 100 100 100 100
100 100 100 100 100 100 100 100 100 100 100 100 100 100 100 100 100 100 100 100 100 100 100 100 100 100 100 100 100 100 100 100 100 100 100 100 100 100 100 100 100 100 100
100 100 100 100 100 100 100 100 100 100 100 100 100 100 100 100 100 100 100 100 100 100 100 100 100 100 100 100 100 100 100 100 100 100 100 100 100 100 99 100 100 100 100
100 100 100 100 100 100 100 100 100 100 100 100 100 100 100 100 100 100 100 100 100 100 100 100 100 100 100 100 100 100 100 100 100 100 100 100 100 100 100 100 100 100 100

GFSMA_prec_cloud_129.txt.gz
Cloud_Cover
100 76 53 40 34 28 11 5 5 5 8 35 26 42 72 18 71 100 100 100 89 100 76 99 74 42 16 99 7 16 5 41 63 17 7 5 5 5 24 71 73 72 93
100 67 41 53 52 53 6 5 5 7 39 36 60 36 57 14 53 35 56 20 96 100 93 43 21 99 34 57 98 83 42 78 82 19 6 30 46 47 6 43 100 100 100
76 100 88 52 52 100 95 22 12 52 56 39 24 49 70 31 31 35 14 70 98 91 67 99 89 100 100 54 88 58 98 87 88 5 68 100 86 22 100 100 100 100 100
78 100 74 100 97 100 100 57 37 56 40 88 100 100 100 89 90 52 42 100 84 50 28 40 100 100 100 100 95 97 64 10 42 84 69 15 58 15 8 43 100 100 24
100 77 21 100 82 100 100 100 100 100 86 100 100 100 100 100 100 100 100 100 100 98 33 34 100 100 99 5 13 71 97 100 100 100 100 100 100 98 100 100 100 100 26
100 100 78 76 65 67 100 100 100 100 100 100 100 100 100 100 100 100 100 100 100 48 51 33 100 100 93 36 91 99 100 84 100 100 100 100 100 99 100 100 94 65 70
100 100 80 66 9 7 25 39 100 100 100 100 100 100 100 100 100 100 100 100 100 94 42 5 100 100 94 67 8 100 20 15 100 99 83 100 100 100 100 100 100 5 4
100 100 98 41 80 30 5 9 100 100 100 100 100 100 100 100 100 100 100 67 100 100 95 5 12 28 24 17 94 70 5 96 24 53 41 100 98 100 100 96 72 14 4
100 100 96 100 85 66 75 100 100 100 100 100 100 100 100 100 100 100 100 100 100 100 97 5 49 28 8 14 5 8 86 25 48 100 100 97 100 100 67 74 10 25 21
100 100 100 100 100 100 100 100 100 100 100 100 100 100 100 100 100 97 99 100 100 100 100 33 8 15 37 7 5 59 16 5 94 100 100 99 100 100 52 20 30 21 5
100 100 100 100 100 100 100 100 100 100 100 100 100 100 100 100 99 100 100 98 100 100 76 31 5 17 53 96 9 83 77 100 81 81 100 100 100 58 17 44 75 21 15
99 100 100 100 100 100 100 100 100 100 100 100 100 100 100 100 100 100 95 99 100 100 51 34 16 28 12 56 98 100 58 39 89 100 100 100 100 99 12 96 87 2 4
100 100 100 100 100 100 100 100 100 100 100 100 100 100 100 100 100 100 67 99 100 65 53 90 69 83 94 100 60 100 100 69 93 100 100 89 50 94 98 100 45 59 77
100 100 100 100 100 100 100 100 100 100 100 100 100 100 100 100 100 100 98 100 100 38 38 37 100 93 100 100 100 100 100 100 100 100 97 97 57 97 100 100 92 15 14
100 100 100 100 100 100 100 100 100 100 100 100 100 100 100 100 100 100 100 100 100 85 51 48 53 68 100 100 99 100 82 20 39 100 87 85 55 84 80 100 76 68 5
100 100 100 100 100 100 100 100 100 100 100 100 100 100 100 100 100 100 100 100 100 73 100 78 71 54 37 35 49 87 28 5 33 73 100 100 95 89 100 100 100 95 99
100 100 100 100 100 100 100 100 100 100 100 100 100 100 100 100 100 100 100 100 100 95 100 84 42 74 98 97 78 77 97 49 5 5 100 100 98 96 100 100 100 68 10
100 100 100 100 100 100 100 100 100 100 100 100 100 100 100 100 100 100 100 100 100 100 96 100 91 100 78 5 79 90 69 39 7 14 18 100 100 100 100 100 100 30 78
100 100 100 100 100 100 100 100 100 100 100 100 100 100 100 100 100 100 100 100 100 100 100 100 96 99 32 53 30 61 19 58 88 100 100 100 100 100 100 100 100 97 100
100 100 100 100 100 100 100 100 100 100 100 100 100 100 100 100 100 100 100 100 100 100 100 95 100 99 100 53 50 96 100 100 100 100 100 100 100 100 100 100 100 100 100
100 100 100 100 100 100 100 100 100 100 100 100 100 100 100 100 100 100 100 100 100 100 100 100 100 99 100 99 100 100 100 100 100 100 100 100 100 100 100 100 100 100 100
100 100 100 100 100 100 100 100 100 100 100 100 100 100 100 100 100 100 100 100 100 100 100 100 100 100 100 100 100 100 100 100 100 100 100 100 100 100 100 100 100 100 100
100 100 100 100 100 100 100 100 100 100 100 100 100 100 100 100 100 100 100 100 100 100 100 100 100 100 100 100 100 100 100 100 100 100 100 100 100 100 100 100 100 100 100
100 100 100 100 100 100 100 100 100 100 100 100 100 100 100 100 100 100 100 100 100 100 100 100 100 100 100 100 100 100 100 100 100 100 100 100 100 100 100 100 100 100 100
100 100 100 100 100 100 100 100 100 100 100 100 100 100 100 100 100 100 100 100 100 100 100 100 100 100 100 100 100 100 100 100 100 100 100 100 100 100 100 100 100 100 100
100 100 100 100 100 100 100 100 100 100 100 100 100 100 100 100 100 100 100 100 100 100 100 100 100 100 100 100 100 100 100 100 100 100 100 100 100 100 100 100 100 100 100

GFSMA_prec_cloud_132.txt.gz
Cloud_Cover
100 100 70 45 99 96 16 12 5 5 5 5 4 5 14 56 10 26 92 85 59 51 99 100 59 5 4 5 8 84 66 78 96 29 60 5 5 57 21 64 5 5 54
100 100 97 44 91 100 75 19 9 5 5 5 5 22 21 60 66 52 49 97 100 100 100 100 20 28 16 5 92 100 100 100 100 82 66 14 98 70 74 33 100 91 83
100 100 65 53 100 100 100 70 5 5 5 5 13 83 80 68 76 70 98 99 99 100 100 100 17 5 5 62 100 99 100 100 100 89 85 72 82 48 73 5 92 100 80
100 100 58 53 14 95 100 100 76 15 39 6 22 19 96 100 100 93 84 92 100 100 100 100 16 5 4 8 69 100 100 93 7 45 65 75 68 23 94 99 53 56 52
99 100 100 58 59 54 96 95 100 92 54 27 66 52 65 89 100 57 75 95 100 100 100 100 10 5 2 5 29 100 97 77 24 18 16 100 98 100 88 100 94 100 87
100 90 98 61 72 34 38 30 99 100 100 93 14 82 100 99 100 100 100 99 100 100 100 100 88 2 5 5 12 100 80 99 67 32 88 100 100 80 41 66 100 99 91
100 100 100 22 49 65 96 7 98 84 100 100 92 90 100 100 100 100 100 100 46 100 100 100 94 8 26 30 11 100 75 100 34 69 100 100 100 100 100 96 89 86 79
100 100 100 100 96 76 98 8 5 85 100 100 100 94 100 100 100 100 100 100 100 100 95 60 17 13 14 10 95 100 66 17 100 100 100 100 100 100 100 99 100 100 100
100 100 99 100 100 90 95 74 6 5 85 57 73 100 100 100 100 100 100 100 100 100 56 54 8 30 20 12 83 5 100 46 100 100 100 100 100 100 100 100 100 100 95
100 100 100 100 100 100 85 86 70 54 6 90 100 100 100 100 100 100 100 100 100 99 93 100 71 41 18 8 55 98 86 96 100 100 100 100 100 99 100 100 100 100 81
100 100 100 100 100 98 100 100 100 100 100 100 100 100 100 100 100 100 100 100 100 99 100 100 100 31 57 15 33 82 100 100 100 100 100 100 100 100 100 100 100 100 5
100 100 100 100 100 100 100 100 100 100 100 100 100 100 100 100 100 100 100 100 96 100 100 100 99 88 60 34 78 100 99 100 100 100 100 79 100 100 100 100 100 100 71
100 100 100 100 100 100 100 100 100 100 100 100 100 100 100 100 100 100 100 69 90 100 100 100 100 99 88 23 95 100 98 100 59 74 89 88 97 87 100 100 100 100 64
93 100 100 100 89 100 100 100 100 100 100 100 100 100 100 100 100 100 100 100 100 100 100 100 100 100 30 24 98 100 99 99 100 80 100 100 100 59 100 100 100 100 27
5 100 100 100 100 100 100 100 100 100 100 100 100 100 100 100 100 100 100 94 99 100 100 100 100 62 30 19 74 53 94 100 98 100 100 100 95 94 30 90 100 100 100
37 9 100 100 100 100 100 100 100 100 100 100 100 100 100 100 100 100 100 100 100 100 100 100 86 99 98 40 73 71 63 62 100 94 96 100 100 100 100 48 99 40 99
100 66 57 100 100 99 100 100 100 100 100 100 100 100 100 100 100 100 100 100 100 100 100 100 100 100 100 82 100 81 100 100 76 19 47 78 100 97 78 28 23 100 100
100 100 100 100 100 100 100 100 100 100 100 100 100 100 100 100 100 100 100 100 100 100 100 100 99 99 76 76 92 88 86 88 63 54 60 45 86 100 100 99 100 96 99
100 100 100 100 100 100 100 100 100 100 100 100 100 100 100 100 100 100 100 100 100 100 100 100 100 100 100 100 100 89 100 76 99 87 37 68 100 100 100 100 100 100 98
100 100 100 100 100 100 100 100 100 100 100 100 100 100 100 100 100 100 100 100 100 100 100 100 100 100 100 100 100 100 98 100 92 78 100 100 100 100 100 100 100 100 100
100 100 100 100 100 100 100 100 100 100 100 100 100 100 100 100 100 100 100 100 100 100 100 100 100 100 100 100 100 100 100 98 97 100 100 100 100 100 100 100 100 100 100
100 100 100 100 100 100 100 100 100 100 100 100 100 100 100 100 100 100 100 100 100 100 100 100 100 100 100 100 100 100 100 100 100 100 100 100 100 100 100 100 100 100 100
100 100 100 100 100 100 100 100 100 100 100 100 100 100 100 100 100 100 100 100 100 100 100 100 100 100 100 100 100 100 100 100 100 100 100 100 100 100 100 100 100 100 100
100 100 100 100 100 100 100 100 100 100 100 100 100 100 100 100 100 100 100 100 100 100 100 100 100 100 100 100 100 100 100 100 100 100 100 100 89 100 100 100 100 100 100
100 100 100 100 100 100 100 100 100 100 100 100 100 100 100 100 100 100 100 100 100 100 100 100 100 100 100 100 100 100 100 100 100 100 100 100 100 100 100 100 100 100 100
100 98 100 100 100 100 100 100 100 100 100 100 100 100 100 100 100 100 100 100 100 100 100 100 100 100 100 100 100 100 100 100 100 100 100 100 100 100 100 100 100 100 100

GFSMA_prec_cloud_135.txt.gz
Cloud_Cover
100 100 100 100 80 2 3 11 17 5 6 5 5 5 2 4 5 5 28 66 32 23 92 100 100 100 100 56 15 98 100 100 100 11 15 92 88 5 5 5 4 5 5
100 100 100 100 100 21 0 2 77 65 62 69 78 61 5 5 5 19 76 29 94 89 98 100 100 100 100 100 5 5 81 100 100 49 9 32 5 5 5 5 5 66 96
100 100 100 67 100 100 56 2 2 14 52 66 98 96 76 14 5 61 64 80 100 100 82 100 100 100 100 100 100 10 37 62 100 39 5 5 8 6 37 12 5 58 93
96 100 100 74 16 13 40 6 4 6 11 95 100 100 100 55 75 84 52 97 99 90 100 100 80 100 83 43 100 8 26 100 100 28 39 5 18 97 100 77 100 100 100
100 100 96 56 43 5 7 58 4 17 25 33 100 100 100 100 31 42 74 84 89 91 100 100 100 73 5 5 55 8 45 100 100 97 100 85 100 100 92 14 78 20 95
86 100 100 81 27 73 96 52 6 3 4 3 99 100 100 100 94 94 96 67 96 86 58 100 100 78 5 5 5 5 15 21 100 100 100 100 100 100 100 100 51 94 100
86 100 100 97 45 5 61 42 53 16 5 4 2 100 100 100 90 100 100 73 87 99 100 100 100 100 30 5 3 5 55 61 100 100 100 100 100 100 99 26 29 60 100
100 100 100 96 87 100 77 40 100 82 22 5 7 0 5 68 100 85 100 100 100 100 100 100 100 100 28 5 5 5 5 99 100 100 100 100 100 100 100 40 5 53 100
100 100 100 100 59 18 72 99 78 100 83 93 16 5 12 90 100 100 100 100 100 100 100 100 100 100 27 25 5 5 5 49 100 100 100 100 100 100 60 34 66 18 11
98 100 100 100 90 100 100 100 100 100 98 99 80 57 60 5 24 97 100 100 100 100 100 100 100 76 19 19 5 5 5 5 77 100 100 100 100 100 100 100 64 7 5
100 100 100 100 100 100 100 84 100 98 100 100 100 100 100 82 26 88 100 100 100 100 100 100 100 41 63 24 47 97 12 58 53 100 100 100 100 100 71 86 88 42 98
100 100 100 100 100 100 100 100 100 100 100 100 98 100 100 100 100 100 100 100 100 100 100 100 99 92 79 97 84 86 6 5 34 77 100 100 100 100 100 52 96 35 100
100 100 100 100 100 100 100 100 100 98 100 100 100 100 100 100 100 100 100 100 100 100 100 100 100 98 96 92 82 57 5 97 93 70 84 100 100 100 100 95 100 88 100
22 100 100 100 100 100 100 100 100 66 100 100 100 100 100 100 100 100 100 100 100 100 100 100 100 100 100 80 72 94 91 52 19 100 100 90 100 100 100 45 41 44 90
0 9 100 100 100 100 100 100 100 100 95 100 100 100 100 100 100 100 100 100 100 100 100 100 100 100 100 100 51 94 74 47 78 83 100 92 100 87 67 91 100 10 72
0 3 17 93 100 100 100 100 100 100 100 93 100 100 100 100 100 100 100 100 100 100 100 100 100 100 100 100 100 85 68 31 36 40 62 23 74 35 93 40 10 5 15
0 0 0 5 100 100 100 100 100 100 100 84 100 100 100 100 100 100 100 100 100 100 100 100 100 100 100 100 100 100 75 98 100 80 80 87 82 78 100 100 95 29 23
0 5 5 12 100 100 100 100 100 100 100 91 100 100 100 100 100 100 100 100 100 100 100 100 100 100 100 100 100 100 100 100 99 96 100 100 100 100 95 100 89 98 15
0 5 100 100 100 100 100 100 100 100 100 64 98 100 100 100 100 100 100 100 100 100 100 100 100 100 100 100 100 100 98 99 100 100 100 100 100 100 99 100 99 100 100
0 4 100 100 100 100 100 100 100 100 100 100 100 100 100 100 100 100 100 100 100 100 100 100 100 100 100 100 100 100 100 100 100 100 100 100 100 100 100 100 92 100 100
58 33 100 100 100 100 100 100 100 100 100 100 100 100 100 100 100 100 100 100 100 100 100 100 100 100 100 100 100 100 100 100 100 100 100 100 100 98 100 100 100 100 100
93 100 100 100 100 100 100 100 100 100 100 100 100 100 100 100 100 100 100 100 100 100 100 100 100 100 100 100 100 100 100 100 100 100 100 100 100 100 100 100 100 100 100
100 100 100 100 100 100 100 100 100 100 100 100 100 100 100 100 100 100 100 100 100 100 100 100 100 100 100 100 100 100 100 100 100 100 100 100 100 100 100 100 100 100 100
100 100 100 100 100 100 100 100 100 100 100 100 100 100 100 100 100 100 100 100 100 100 100 100 100 100 100 100 100 100 100 100 100 100 100 100 100 98 100 100 100 100 100
100 100 100 100 100 100 100 100 100 100 100 100 100 100 100 100 100 100 100 100 100 100 100 100 100 100 100 100 100 100 100 100 100 100 100 100 100 100 100 100 100 100 100
100 100 100 100 100 100 100 100 100 100 100 100 100 100 100 100 100 100 100 100 100 100 100 100 100 100 100 100 100 100 100 100 100 100 100 93 100 100 100 100 100 100 100

GFSMA_prec_cloud_138.txt.gz
Cloud_Cover
100 95 100 94 100 77 51 50 76 92 7 4 0 5 58 9 5 5 22 7 5 40 100 99 54 100 100 81 100 82 92 100 74 100 20 98 39 18 16 57 100 99 6
100 100 100 100 95 23 87 100 100 66 4 5 4 5 5 31 61 72 59 74 5 40 100 100 100 100 90 26 100 33 11 96 99 100 74 100 97 78 100 100 100 99 72
100 100 100 100 100 32 5 8 84 100 99 16 9 41 8 5 9 6 54 20 23 26 100 100 100 100 100 19 100 80 7 90 100 100 100 92 100 100 100 100 67 91 100
100 100 90 100 100 91 50 7 5 35 71 72 79 5 46 58 27 10 62 14 51 64 99 100 58 91 90 84 100 100 100 27 68 100 100 100 99 100 100 100 100 63 81
100 100 94 40 77 100 24 24 14 5 18 27 83 90 44 100 100 95 63 15 5 96 100 100 100 8 57 100 100 100 48 79 100 100 100 95 20 100 100 100 100 100 100
94 100 100 100 100 89 96 34 15 14 27 13 46 92 98 81 67 100 100 100 83 90 100 100 80 92 100 100 100 100 42 76 100 97 100 100 100 100 100 98 100 100 100
89 98 100 64 100 78 40 5 32 39 71 30 76 54 38 96 5 4 6 97 100 100 100 100 100 100 100 100 100 89 100 100 79 56 100 100 100 100 100 100 100 100 100
100 100 100 95 100 78 86 21 4 2 26 36 90 100 100 99 100 9 22 78 9 50 100 100 100 99 99 100 100 84 97 46 64 50 71 100 100 100 100 100 100 100 100
100 100 100 96 100 99 79 70 35 8 5 48 94 53 100 100 100 99 42 100 91 23 41 100 100 100 100 100 100 93 100 100 23 100 85 100 100 100 100 85 100 70 93
100 100 100 100 100 100 100 64 58 100 100 63 37 14 83 100 100 100 100 97 95 51 97 100 100 100 100 100 100 100 97 92 24 56 66 99 100 100 96 100 100 100 71
100 100 100 100 100 100 99 71 67 21 34 83 27 93 44 71 100 86 100 100 100 100 100 100 100 100 100 90 100 93 98 55 6 78 88 99 100 83 84 100 100 81 100
99 100 99 100 100 100 100 100 96 100 96 78 100 93 72 34 100 100 100 100 100 100 100 100 100 100 100 100 100 100 78 98 84 60 97 100 72 57 100 98 66 100 100
1 65 39 90 100 100 100 100 100 80 100 100 99 98 100 98 62 100 91 100 100 100 100 100 100 100 100 100 100 60 100 73 82 75 96 100 19 23 68 63 23 96 100
0 0 1 100 100 100 100 100 100 99 100 100 100 100 100 100 100 100 100 100 100 100 100 100 100 100 100 100 100 89 99 71 96 26 100 100 94 71 100 25 43 50 99
0 0 0 61 100 100 100 100 100 100 100 100 100 100 100 93 100 100 100 100 100 100 100 100 100 100 100 100 100 100 100 100 100 100 100 100 58 25 74 10 5 70 100
0 0 4 10 37 100 100 100 100 100 100 100 100 100 100 100 100 100 100 100 100 100 100 100 100 100 100 100 100 100 100 100 100 100 100 100 74 31 42 55 24 62 100
0 0 3 28 25 45 100 100 100 100 100 100 100 100 100 100 100 94 100 100 100 100 100 100 100 100 100 100 100 100 100 100 100 100 100 100 100 79 100 100 88 100 100
0 0 19 22 26 12 99 100 100 100 100 100 100 100 100 100 100 100 100 100 100 100 100 100 100 100 100 100 100 100 100 100 100 100 100 100 100 100 100 100 100 100 100
0 0 5 1 43 26 100 100 100 100 100 100 100 100 100 100 100 100 100 100 100 100 100 100 100 100 100 100 100 100 100 100 100 100 100 100 100 100 100 100 100 100 100
3 5 5 0 0 6 100 100 100 100 100 100 100 100 100 100 100 100 100 100 100 100 100 100 100 100 100 100 100 100 100 100 100 100 100 100 100 100 100 100 100 100 83
0 0 0 0 3 76 100 100 100 100 100 100 100 100 100 100 100 100 100 100 100 100 100 100 100 100 100 100 100 100 100 100 100 100 100 100 100 100 100 100 100 100 91
23 64 5 57 74 100 100 100 100 100 100 100 100 100 100 100 100 100 100 100 100 100 100 100 100 100 100 100 100 100 100 100 100 100 100 100 100 100 100 100 100 100 100
100 100 100 100 100 100 100 100 100 100 100 100 100 100 100 100 100 100 100 100 100 100 100 100 100 100 100 100 100 100 100 100 100 100 100 100 100 100 100 100 100 100 100
100 100 100 100 100 100 100 100 100 100 100 100 100 100 100 100 100 100 100 100 100 100 100 100 100 100 100 100 100 100 100 100 100 100 100 100 100 100 100 100 100 100 100
100 100 100 100 100 100 100 100 100 100 100 100 100 100 100 100 100 100 100 100 100 100 100 100 100 100 100 100 100 100 100 100 100 100 100 100 100 100 100 100 100 100 100
100 100 100 100 100 100 100 100 100 100 100 100 100 100 100 100 100 100 100 100 100 100 100 100 100 100 100 100 100 100 100 100 100 100 100 100 100 100 100 100 100 100 100